Lafayette, IN

12:08 AM EST on December 10, 2019 (GMT -0500)
Purdue Univ

Weather History for KLAF - November, 2019

Change the Weather History Date:

Wednesday, November 13, 2019

  Actual Average Record
Temperature  
Mean Temperature 17 °F 44 °F  
Max Temperature 29 °F 53 °F 70 °F (1999)
Min Temperature 5 °F 36 °F 9 °F (1986)
Degree Days  
Heating Degree Days 48 21  
Month to date heating degree days 402 239  
Since 1 July heating degree days 759 673  
Cooling Degree Days 0 0  
Month to date cooling degree days 0 0  
Year to date cooling degree days 1052 982  
Moisture  
Dew Point 10 °F    
Average Humidity 69    
Maximum Humidity 87    
Minimum Humidity 50    
Precipitation  
Precipitation 0.00 in 0.11 in 1.75 in (1959)
Month to date precipitation 0.26 1.22  
Year to date precipitation 36.42 32.32  
Sea Level Pressure  
Sea Level Pressure 30.30 in    
Wind  
Wind Speed 4 mph ()    
Max Wind Speed 16 mph    
Max Gust Speed 25 mph    
Visibility 10.0 miles    
Events      
T = Trace of Precipitation, MM = Missing Value Source: Averaged Metar Reports

Daily Weather History Graph

Daily Weather History Graph

Search for Another Location

Airport or City:

Astronomy

Nov. 13, 2019 Rise Set
Actual Time 7:31 AM EST 5:32 PM EST
Civil Twilight 7:02 AM EST 6:01 PM EST
Nautical Twilight 6:29 AM EST 6:34 PM EST
Astronomical Twilight 5:57 AM EST 7:06 PM EST
Moon 6:35 PM EST (11/13) 8:24 AM EST (11/13)
Length of Visible Light 10h 59m
Length of Day
10h 01m
Full, 99% of the Moon is Illuminated
Nov 13
Full
Nov 19
Last Quarter
Nov 26
New
Dec 4
First Quarter
Dec 12
Full

Hourly Weather History & Observations

Time (EST) Temp. Windchill Dew Point Humidity Pressure Visibility Wind Dir Wind Speed Gust Speed Precip Events Conditions
12:54 AM 5.0 °F - 1.0 °F 84% 30.48 in 10.0 mi Calm Calm - N/A   Clear
1:54 AM 6.1 °F - 1.0 °F 80% 30.45 in 10.0 mi Calm Calm - N/A   Clear
2:54 AM 5.0 °F - 1.0 °F 84% 30.45 in 10.0 mi Calm Calm - N/A   Clear
3:54 AM 8.1 °F - 3.9 °F 83% 30.45 in 10.0 mi Calm Calm - N/A   Clear
4:54 AM 10.0 °F - 3.9 °F 76% 30.44 in 10.0 mi Calm Calm - N/A   Clear
5:54 AM 10.0 °F - 5.0 °F 80% 30.41 in 10.0 mi Calm Calm - N/A   Clear
6:54 AM 10.9 °F 1.4 °F 5.0 °F 77% 30.39 in 10.0 mi SSE 5.8 mph - N/A   Clear
7:54 AM 10.9 °F 0.2 °F 3.9 °F 73% 30.38 in 10.0 mi SSE 6.9 mph - N/A   Clear
8:54 AM 14.0 °F 2.9 °F 5.0 °F 67% 30.38 in 10.0 mi South 8.1 mph - N/A   Clear
9:54 AM 17.1 °F 5.8 °F 8.1 °F 68% 30.36 in 10.0 mi South 9.2 mph - N/A   Clear
10:54 AM 19.0 °F 6.8 °F 10.0 °F 68% 30.38 in 10.0 mi SSW 11.5 mph - N/A   Clear
11:54 AM 21.9 °F 10.4 °F 12.0 °F 66% 30.36 in 10.0 mi SSW 11.5 mph 17.3 mph N/A   Clear
12:54 PM 23.0 °F 13.1 °F 12.9 °F 65% 30.30 in 10.0 mi South 9.2 mph 17.3 mph N/A   Clear
2:54 PM 26.1 °F 15.6 °F 12.0 °F 55% 30.22 in 10.0 mi South 11.5 mph 19.6 mph N/A   Clear
3:54 PM 27.0 °F 17.3 °F 12.0 °F 53% 30.19 in 10.0 mi South 10.4 mph 20.7 mph N/A   Clear
4:54 PM 28.0 °F 20.0 °F 12.9 °F 53% 30.19 in 10.0 mi South 8.1 mph - N/A   Clear
5:54 PM 27.0 °F 18.7 °F 15.1 °F 61% 30.17 in 10.0 mi SSE 8.1 mph - N/A   Scattered Clouds
6:54 PM 28.0 °F 18.6 °F 17.1 °F 63% 30.14 in 10.0 mi SSE 10.4 mph 16.1 mph N/A   Overcast
7:54 PM 28.0 °F 22.8 °F 18.0 °F 66% 30.16 in 10.0 mi South 4.6 mph - N/A   Overcast
8:54 PM 28.9 °F 25.2 °F 18.0 °F 64% 30.16 in 10.0 mi SSW 3.5 mph - N/A   Overcast
9:54 PM 28.9 °F 25.2 °F 17.1 °F 61% 30.17 in 10.0 mi SW 3.5 mph - N/A   Overcast
10:54 PM 28.0 °F 22.8 °F 17.1 °F 63% 30.15 in 10.0 mi SSW 4.6 mph - N/A   Mostly Cloudy
11:54 PM 28.0 °F - 18.0 °F 66% 30.15 in 10.0 mi Calm Calm - N/A   Scattered Clouds